H1 CPF 2 NER 2022 3 5 9 064 01 glonass106 H2 0705201 9106 32275 2022 3 5 0 0 0 2022 3 8 23 45 0 900 1 1 0 0 0 1 H9 10 0 59643 0.00000 0 -12270596.873 -14272645.185 17216127.997 10 0 59643 900.00000 0 -10261644.480 -13242425.186 19236037.150 10 0 59643 1800.00000 0 -7967282.172 -12294492.816 20882365.880 10 0 59643 2700.00000 0 -5436285.077 -11477535.140 22123177.492 10 0 59643 3600.00000 0 -2726809.012 -10831222.741 22934410.518 10 0 59643 4500.00000 0 95785.888 -10384519.485 23300341.659 10 0 59643 5400.00000 0 2961410.663 -10154460.432 23213887.563 10 0 59643 6300.00000 0 5797920.180 -10145448.707 22676740.054 10 0 59643 7200.00000 0 8533872.753 -10349100.489 21699332.434 10 0 59643 8100.00000 0 11101263.130 -10744644.295 20300637.570 10 0 59643 9000.00000 0 13438116.309 -11299857.680 18507801.471 10 0 59643 9900.00000 0 15490835.161 -11972501.941 16355619.115 10 0 59643 10800.00000 0 17216205.119 -12712194.606 13885862.192 10 0 59643 11700.00000 0 18582973.154 -13462641.012 11146471.231 10 0 59643 12600.00000 0 19572935.857 -14164131.064 8190627.387 10 0 59643 13500.00000 0 20181491.826 -14756195.925 5075721.500 10 0 59643 14400.00000 0 20417635.905 -15180312.460 1862240.258 10 0 59643 15300.00000 0 20303396.127 -15382540.936 -1387408.842 10 0 59643 16200.00000 0 19872737.688 -15315984.203 -4610110.714 10 0 59643 17100.00000 0 19169980.694 -14942963.840 -7743270.263 10 0 59643 18000.00000 0 18247798.884 -14236820.696 -10726029.946 10 0 59643 18900.00000 0 17164884.226 -13183262.989 -13500453.342 10 0 59643 19800.00000 0 15983376.231 -11781204.182 -16012651.451 10 0 59643 20700.00000 0 14766164.677 -10043054.397 -18213829.572 10 0 59643 21600.00000 0 13574179.530 -7994452.066 -20061234.511 10 0 59643 22500.00000 0 12463782.201 -5673445.925 -21518983.881 10 0 59643 23400.00000 0 11484367.793 -3129160.588 -22558761.626 10 0 59643 24300.00000 0 10676278.921 -420000.302 -23160366.697 10 0 59643 25200.00000 0 10069118.433 2388535.308 -23312104.587 10 0 59643 26100.00000 0 9680531.560 5226333.486 -23011014.382 10 0 59643 27000.00000 0 9515508.304 8021346.338 -22262927.121 10 0 59643 27900.00000 0 9566235.034 10702354.174 -21082354.261 10 0 59643 28800.00000 0 9812501.326 13201699.997 -19492208.250 10 0 59643 29700.00000 0 10222644.777 15457882.232 -17523360.237 10 0 59643 30600.00000 0 10754993.942 17417898.382 -15214043.038 10 0 59643 31500.00000 0 11359748.548 19039242.446 -12609110.531 10 0 59643 32400.00000 0 11981217.637 20291473.303 -9759167.405 10 0 59643 33300.00000 0 12560320.989 21157289.007 -6719585.888 10 0 59643 34200.00000 0 13037247.950 21633062.510 -3549428.556 10 0 59643 35100.00000 0 13354160.834 21728816.976 -310298.240 10 0 59643 36000.00000 0 13457828.128 21467642.392 2934862.263 10 0 59643 36900.00000 0 13302075.467 20884578.765 6122996.816 10 0 59643 37800.00000 0 12849950.072 20025013.706 9192164.496 10 0 59643 38700.00000 0 12075506.425 18942662.700 12082745.690 10 0 59643 39600.00000 0 10965137.019 17697217.889 14738601.752 10 0 59643 40500.00000 0 9518391.314 16351765.022 17108165.462 10 0 59643 41400.00000 0 7748247.587 14970077.751 19145441.075 10 0 59643 42300.00000 0 5680825.505 13613903.358 20810894.658 10 0 59643 43200.00000 0 3354550.628 12340353.966 22072217.892 10 0 59643 44100.00000 0 818804.876 11199512.535 22904951.041 10 0 59643 45000.00000 0 -1867881.512 10232353.677 23292953.616 10 0 59643 45900.00000 0 -4640022.177 9469065.825 23228714.189 10 0 59643 46800.00000 0 -7427660.745 8927844.425 22713493.835 10 0 59643 47700.00000 0 -10159048.397 8614206.006 21757300.687 10 0 59643 48600.00000 0 -12763402.630 8520851.235 20378696.172 10 0 59643 49500.00000 0 -15173633.524 8628082.139 18604436.493 10 0 59643 50400.00000 0 -17328924.932 8904755.576 16468955.974 10 0 59643 51300.00000 0 -19177063.995 9309732.559 14013701.809 10 0 59643 52200.00000 0 -20676422.603 9793762.282 11286332.530 10 0 59643 53100.00000 0 -21797508.628 10301721.335 8339795.346 10 0 59643 54000.00000 0 -22524022.664 10775113.537 5231299.845 10 0 59643 54900.00000 0 -22853376.473 11154724.647 2021207.750 10 0 59643 55800.00000 0 -22796651.825 11383319.527 -1228139.603 10 0 59643 56700.00000 0 -22378001.905 11408267.312 -4453633.186 10 0 59643 57600.00000 0 -21633520.919 11183983.048 -7592623.715 10 0 59643 58500.00000 0 -20609629.876 10674081.917 -10584140.305 10 0 59643 59400.00000 0 -19361046.934 9853154.233 -13370076.277 10 0 59643 60300.00000 0 -17948428.130 8708085.387 -15896318.819 10 0 59643 61200.00000 0 -16435778.074 7238864.106 -18113800.274 10 0 59643 62100.00000 0 -14887739.701 5458843.962 -19979450.689 10 0 59643 63000.00000 0 -13366877.003 3394445.962 -21457033.298 10 0 59643 63900.00000 0 -11931064.763 1084313.563 -22517846.945 10 0 59643 64800.00000 0 -10631094.548 -1422045.754 -23141282.227 10 0 59643 65700.00000 0 -9508596.930 -4066076.862 -23315220.926 10 0 59643 66600.00000 0 -8594366.551 -6782376.632 -23036271.247 10 0 59643 67500.00000 0 -7907159.682 -9501186.380 -22309834.468 10 0 59643 68400.00000 0 -7453014.074 -12151074.368 -21150001.707 10 0 59643 69300.00000 0 -7225119.107 -14661697.555 -19579282.588 10 0 59643 70200.00000 0 -7204241.174 -16966528.404 -17628170.764 10 0 59643 71100.00000 0 -7359685.943 -19005433.839 -15334554.232 10 0 59643 72000.00000 0 -7650756.649 -20726999.205 -12742981.458 10 0 59643 72900.00000 0 -8028646.563 -22090500.679 -9903797.145 10 0 59643 73800.00000 0 -8438685.418 -23067443.980 -6872164.106 10 0 59643 74700.00000 0 -8822844.494 -23642605.242 -3706990.233 10 0 59643 75600.00000 0 -9122393.953 -23814530.769 -469781.489 10 0 59643 76500.00000 0 -9280599.430 -23595475.124 2776556.465 10 0 59643 77400.00000 0 -9245343.140 -23010780.613 5968944.155 10 0 59643 78300.00000 0 -8971557.837 -22097724.890 9045357.354 10 0 59643 79200.00000 0 -8423369.960 -20903885.785 11946034.852 10 0 59643 80100.00000 0 -7575860.595 -19485092.801 14614640.961 10 0 59643 81000.00000 0 -6416369.149 -17903052.059 16999359.905 10 0 59643 81900.00000 0 -4945283.967 -16222744.938 19053900.799 10 0 59643 82800.00000 0 -3176285.849 -14509709.996 20738393.809 10 0 59643 83700.00000 0 -1136033.368 -12827322.247 22020160.527 10 0 59643 84600.00000 0 1136697.754 -11234183.614 22874344.173 10 0 59643 85500.00000 0 3592386.108 -9781733.468 23284387.949 10 0 59644 0.00000 0 6172590.464 -8512178.656 23242352.922 10 0 59644 900.00000 0 8812156.377 -7456828.192 22749069.642 10 0 59644 1800.00000 0 11441709.147 -6634903.021 21814120.991 10 0 59644 2700.00000 0 13990335.079 -6052867.513 20455656.601 10 0 59644 3600.00000 0 16388336.987 -5704311.493 18700042.236 10 0 59644 4500.00000 0 18569951.441 -5570386.343 16581350.646 10 0 59644 5400.00000 0 20475915.104 -5620776.255 14140703.290 10 0 59644 6300.00000 0 22055773.803 -5815163.319 11425475.128 10 0 59644 7200.00000 0 23269838.301 -6105124.340 8488377.476 10 0 59644 8100.00000 0 24090705.434 -6436379.019 5386436.336 10 0 59644 9000.00000 0 24504281.192 -6751294.290 2179885.791 10 0 59644 9900.00000 0 24510263.039 -6991538.596 -1069001.969 10 0 59644 10800.00000 0 24122061.484 -7100773.433 -4297127.143 10 0 59644 11700.00000 0 23366164.407 -7027267.786 -7441789.523 10 0 59644 12600.00000 0 22280971.114 -6726324.238 -10441908.097 10 0 59644 13500.00000 0 20915145.408 -6162413.455 -13239209.009 10 0 59644 14400.00000 0 19325557.148 -5310926.002 -15779358.500 10 0 59644 15300.00000 0 17574899.043 -4159466.684 -18013018.543 10 0 59644 16200.00000 0 15729078.878 -2708635.838 -19896804.724 10 0 59644 17100.00000 0 13854496.589 -972263.597 -21394127.888 10 0 59644 18000.00000 0 12015320.283 1022913.837 -22475903.452 10 0 59644 18900.00000 0 10270874.958 3238123.561 -23121114.999 10 0 59644 19800.00000 0 8673252.798 5623935.897 -23317221.594 10 0 59644 20700.00000 0 7265244.490 8122098.367 -23060401.175 10 0 59644 21600.00000 0 6078677.380 10667748.416 -22355625.503 10 0 59644 22500.00000 0 5133229.236 13191913.750 -21216565.193 10 0 59644 23400.00000 0 4435766.555 15624196.980 -19665326.501 10 0 59644 24300.00000 0 3980234.321 17895533.497 -17732024.641 10 0 59644 25200.00000 0 3748101.102 19940908.269 -15454201.437 10 0 59644 26100.00000 0 3709340.105 21701918.532 -12876098.202 10 0 59644 27000.00000 0 3823904.238 23129075.687 -10047797.523 10 0 59644 27900.00000 0 4043632.343 24183750.291 -7024250.294 10 0 59644 28800.00000 0 4314505.564 24839678.751 -3864206.883 10 0 59644 29700.00000 0 4579157.805 25083968.690 -629073.275 10 0 59644 30600.00000 0 4779533.435 24917560.914 2618285.295 10 0 59644 31500.00000 0 4859579.057 24355128.760 5814769.405 10 0 59644 32400.00000 0 4767854.648 23424419.438 8898274.878 10 0 59644 33300.00000 0 4459952.823 22165065.388 11808902.165 10 0 59644 34200.00000 0 3900623.147 20626916.143 14490121.600 10 0 59644 35100.00000 0 3065511.012 18867961.199 16889871.680 10 0 59644 36000.00000 0 1942436.910 16951931.497 18961568.928 10 0 59644 36900.00000 0 532161.499 14945680.403 20665009.852 10 0 59644 37800.00000 0 -1151396.506 12916453.960 21967147.882 10 0 59644 38700.00000 0 -3081499.671 10929164.499 22842730.762 10 0 59644 39600.00000 0 -5219474.999 9043781.223 23274786.575 10 0 59644 40500.00000 0 -7516105.015 7312946.130 23254949.601 10 0 59644 41400.00000 0 -9913469.688 5779913.967 22783620.187 10 0 59644 42300.00000 0 -12347163.384 4476901.311 21869955.791 10 0 59644 43200.00000 0 -14748795.473 3423912.615 20531693.521 10 0 59644 44100.00000 0 -17048671.393 2628091.210 18794807.421 10 0 59644 45000.00000 0 -19178543.232 2083621.416 16693006.859 10 0 59644 45900.00000 0 -21074315.890 1772184.887 14267085.270 10 0 59644 46800.00000 0 -22678596.454 1663951.196 11564131.333 10 0 59644 47700.00000 0 -23942980.606 1719060.322 8636617.445 10 0 59644 48600.00000 0 -24829980.706 1889533.970 5541382.776 10 0 59644 49500.00000 0 -25314514.879 2121534.564 2338530.392 10 0 59644 50400.00000 0 -25384894.682 2357876.005 -909740.079 10 0 59644 51300.00000 0 -25043269.889 2540679.542 -4140341.463 10 0 59644 52200.00000 0 -24305511.676 2614061.837 -7290525.957 10 0 59644 53100.00000 0 -23200539.101 2526740.934 -10299105.649 10 0 59644 54000.00000 0 -21769117.247 2234449.195 -13107642.560 10 0 59644 54900.00000 0 -20062177.504 1702050.482 -15661584.804 10 0 59644 55800.00000 0 -18138730.645 905271.338 -17911326.507 10 0 59644 56700.00000 0 -16063460.201 -168027.707 -19813170.901 10 0 59644 57600.00000 0 -13904096.953 -1517095.265 -21330178.078 10 0 59644 58500.00000 0 -11728684.283 -3128079.475 -22432881.116 10 0 59644 59400.00000 0 -9602848.454 -4974375.559 -23099857.107 10 0 59644 60300.00000 0 -7587187.387 -7017517.214 -23318142.355 10 0 59644 61200.00000 0 -5734886.437 -9208575.636 -23083483.964 10 0 59644 62100.00000 0 -4089659.962 -11490008.935 -22400423.132 10 0 59644 63000.00000 0 -2684103.785 -13797885.823 -21282208.516 10 0 59644 63900.00000 0 -1538526.566 -16064391.685 -19750541.202 10 0 59644 64800.00000 0 -660307.964 -18220513.321 -17835155.879 10 0 59644 65700.00000 0 -43809.578 -20198790.902 -15573245.914 10 0 59644 66600.00000 0 329158.524 -21936022.557 -13008743.034 10 0 59644 67500.00000 0 488336.155 -23375808.787 -10191465.186 10 0 59644 68400.00000 0 473519.273 -24470830.252 -7176148.798 10 0 59644 69300.00000 0 332637.932 -25184763.406 -4021384.180 10 0 59644 70200.00000 0 119487.890 -25493753.523 -788474.850 10 0 59644 71100.00000 0 -108787.403 -25387383.150 2459756.815 10 0 59644 72000.00000 0 -294357.160 -24869095.203 5660193.803 10 0 59644 72900.00000 0 -381392.531 -23956052.986 8750654.284 10 0 59644 73800.00000 0 -318670.202 -22678443.088 11671102.563 10 0 59644 74700.00000 0 -61979.453 -21078250.696 14364817.095 10 0 59644 75600.00000 0 423769.813 -19207558.991 16779492.583 10 0 59644 76500.00000 0 1162827.738 -17126444.179 18868254.703 10 0 59644 77400.00000 0 2167347.038 -14900554.594 20590567.800 10 0 59644 78300.00000 0 3436640.977 -12598475.172 21913018.362 10 0 59644 79200.00000 0 4956988.714 -10288987.312 22809959.566 10 0 59644 80100.00000 0 6701996.906 -8038338.161 23264004.972 10 0 59644 81000.00000 0 8633503.263 -5907632.656 23266362.402 10 0 59644 81900.00000 0 10702985.218 -3950456.141 22817002.006 10 0 59644 82800.00000 0 12853415.724 -2210825.788 21924655.581 10 0 59644 83700.00000 0 15021489.708 -721555.035 20606647.255 10 0 59644 84600.00000 0 17140129.192 496901.898 18888558.685 10 0 59644 85500.00000 0 19141163.303 1437078.270 16803734.981 10 0 59645 0.00000 0 20958071.841 2104570.732 14392640.677 10 0 59645 900.00000 0 22528679.261 2517561.033 11702076.374 10 0 59645 1800.00000 0 23797684.265 2705803.717 8784274.105 10 0 59645 2700.00000 0 24718922.555 2709124.398 5695884.250 10 0 59645 3600.00000 0 25257265.396 2575491.676 2496876.596 10 0 59645 4500.00000 0 25390075.190 2358745.108 -750624.335 10 0 59645 5400.00000 0 25108156.574 2116075.764 -3983546.756 10 0 59645 6300.00000 0 24416162.832 1905366.510 -7139098.155 10 0 59645 7200.00000 0 23332440.274 1782505.096 -10155986.625 10 0 59645 8100.00000 0 21888316.901 1798784.344 -12975612.903 10 0 59645 9000.00000 0 20126865.019 1998500.024 -15543209.663 10 0 59645 9900.00000 0 18101189.581 2416848.563 -17808905.654 10 0 59645 10800.00000 0 15872313.795 3078214.094 -19728694.013 10 0 59645 11700.00000 0 13506750.343 3994917.819 -21265286.094 10 0 59645 12600.00000 0 11073859.514 5166483.180 -22388834.422 10 0 59645 13500.00000 0 8643104.236 6579448.657 -23077511.142 10 0 59645 14400.00000 0 6281316.043 8207737.056 -23317931.075 10 0 59645 15300.00000 0 4050085.433 10013566.820 -23105411.458 10 0 59645 16200.00000 0 2003384.621 11948868.288 -22444063.545 10 0 59645 17100.00000 0 185520.953 13957146.723 -21346714.268 10 0 59645 18000.00000 0 -1370494.559 15975715.113 -19834659.354 10 0 59645 18900.00000 0 -2644096.461 17938204.245 -17937252.357 10 0 59645 19800.00000 0 -3627784.852 19777245.789 -15691337.128 10 0 59645 20700.00000 0 -4327191.150 21427216.489 -13140534.330 10 0 59645 21600.00000 0 -4760587.917 22826928.837 -10334395.390 10 0 59645 22500.00000 0 -4957864.330 23922155.497 -7327440.010 10 0 59645 23400.00000 0 -4959011.385 24667881.376 -4178095.859 10 0 59645 24300.00000 0 -4812181.660 25030188.563 -947561.116 10 0 59645 25200.00000 0 -4571406.515 24987694.604 2301387.775 10 0 59645 26100.00000 0 -4294068.098 24532483.317 5505619.429 10 0 59645 27000.00000 0 -4038233.980 23670488.770 8602877.627 10 0 59645 27900.00000 0 -3859968.000 22421316.095 11532993.782 10 0 59645 28800.00000 0 -3810731.810 20817506.581 14239057.610 10 0 59645 29700.00000 0 -3934987.663 18903277.929 16668523.023 10 0 59645 30600.00000 0 -4268104.315 16732792.453 18774227.642 10 0 59645 31500.00000 0 -4834654.893 14368025.847 20515306.201 10 0 59645 32400.00000 0 -5647178.979 11876325.521 21857980.512 10 0 59645 33300.00000 0 -6705461.481 9327760.265 22776211.137 10 0 59645 34200.00000 0 -7996359.136 6792371.456 23252198.703 10 0 59645 35100.00000 0 -9494182.503 4337439.706 23276725.743 10 0 59645 36000.00000 0 -11161618.181 2024879.994 22849332.933 10 0 59645 36900.00000 0 -12951153.380 -91127.226 21978326.608 10 0 59645 37800.00000 0 -14806944.071 -1966171.434 20680617.572 10 0 59645 38700.00000 0 -16667049.474 -3567230.416 18981394.204 10 0 59645 39600.00000 0 -18465940.179 -4873805.253 16913635.886 10 0 59645 40500.00000 0 -20137175.673 -5878525.816 14517475.809 10 0 59645 41400.00000 0 -21616139.782 -6587202.590 11839424.903 10 0 59645 42300.00000 0 -22842719.706 -7018323.688 8931471.569 10 0 59645 43200.00000 0 -23763816.523 -7202019.190 5850074.230 10 0 59645 44100.00000 0 -24335581.737 -7178537.256 2655065.998 10 0 59645 45000.00000 0 -24525285.688 -6996296.992 -591507.239 10 0 59645 45900.00000 0 -24312738.967 -6709600.984 -3826592.681 10 0 59645 46800.00000 0 -23691206.631 -6376104.800 -6987356.708 10 0 59645 47700.00000 0 -22667776.300 -6054151.036 -10012406.972 10 0 59645 48600.00000 0 -21263164.201 -5800081.259 -12842986.353 10 0 59645 49500.00000 0 -19510966.817 -5665640.060 -15424115.324 10 0 59645 50400.00000 0 -17456389.157 -5695581.478 -17705660.207 10 0 59645 51300.00000 0 -15154502.537 -5925579.414 -19643306.595 10 0 59645 52200.00000 0 -12668104.344 -6380530.781 -21199419.158 10 0 59645 53100.00000 0 -10065268.875 -7073323.443 -22343771.328 10 0 59645 54000.00000 0 -7416690.964 -8004121.468 -23054131.118 10 0 59645 54900.00000 0 -4792932.540 -9160198.476 -23316692.017 10 0 59645 55800.00000 0 -2261686.250 -10516326.844 -23126340.935 10 0 59645 56700.00000 0 114830.725 -12035707.308 -22486758.143 10 0 59645 57600.00000 0 2282245.019 -13671400.915 -21410347.336 10 0 59645 58500.00000 0 4196059.779 -15368204.133 -19917996.963 10 0 59645 59400.00000 0 5823267.996 -17064889.384 -18038677.199 10 0 59645 60300.00000 0 7143480.161 -18696717.778 -15808879.888 10 0 59645 61200.00000 0 8149520.053 -20198119.127 -13271911.941 10 0 59645 62100.00000 0 8847464.800 -21505427.128 -10477055.438 10 0 59645 63000.00000 0 9256128.562 -22559554.912 -7478610.436 10 0 59645 63900.00000 0 9406012.536 -23308498.355 -4334839.001 10 0 59645 64800.00000 0 9337766.531 -23709561.607 -1106831.033 10 0 59645 65700.00000 0 9100228.024 -23731210.750 2142685.843 10 0 59645 66600.00000 0 8748122.436 -23354477.083 5350568.637 10 0 59645 67500.00000 0 8339522.773 -22573850.524 8454489.356 10 0 59645 68400.00000 0 7933176.914 -21397625.057 11394148.922 10 0 59645 69300.00000 0 7585816.289 -19847681.393 14112450.480 10 0 59645 70200.00000 0 7349560.404 -17958715.678 16556609.020 10 0 59645 71100.00000 0 7269527.359 -15776946.338 18679175.666 10 0 59645 72000.00000 0 7381751.612 -13358353.051 20438956.754 10 0 59645 72900.00000 0 7711497.120 -10766521.247 21801810.260 10 0 59645 73800.00000 0 8272037.126 -8070181.741 22741304.611 10 0 59645 74700.00000 0 9063952.187 -5340547.707 23239227.626 10 0 59645 75600.00000 0 10074976.238 -2648559.230 23285936.354 10 0 59645 76500.00000 0 11280397.555 -62149.289 22880541.509 10 0 59645 77400.00000 0 12643998.275 2356355.997 22030923.249 10 0 59645 78300.00000 0 14119493.686 4552595.832 20753578.150 10 0 59645 79200.00000 0 15652411.669 6482194.965 19073300.230 10 0 59645 80100.00000 0 17182334.133 8112362.672 17022701.945 10 0 59645 81000.00000 0 18645407.188 9423005.051 14641584.016 10 0 59645 81900.00000 0 19977015.263 10407305.369 11976165.771 10 0 59645 82800.00000 0 21114507.300 11071749.222 9078190.509 10 0 59645 83700.00000 0 21999860.705 11435594.522 6003922.837 10 0 59645 84600.00000 0 22582171.042 11529809.523 2813057.136 10 0 59645 85500.00000 0 22819862.501 11395524.414 -432441.581 10 0 59646 0.00000 0 22682525.759 11082062.577 -3669541.580 10 0 59646 900.00000 0 22152305.194 10644635.134 -6835371.180 10 0 59646 1800.00000 0 21224776.728 10141797.222 -9868439.750 10 0 59646 2700.00000 0 19909278.430 9632773.528 -12709834.713 10 0 59646 3600.00000 0 18228679.431 9174767.012 -15304366.605 10 0 59646 4500.00000 0 16218596.135 8820364.838 -17601641.432 10 0 59646 5400.00000 0 13926087.981 8615151.450 -19557039.172 10 0 59646 6300.00000 0 11407886.619 8595629.910 -21132579.574 10 0 59646 7200.00000 0 8728231.974 8787539.412 -22297658.582 10 0 59646 8100.00000 0 5956404.806 9204640.215 -23029641.508 10 0 59646 9000.00000 0 3164057.875 9848017.513 -23314301.763 10 0 59646 9900.00000 0 422456.193 10705933.944 -23146096.921 10 0 59646 10800.00000 0 -2200259.647 11754237.496 -22528276.980 10 0 59646 11700.00000 0 -4641674.092 12957308.287 -21472822.729 10 0 59646 12600.00000 0 -6847453.770 14269505.116 -20000215.275 10 0 59646 13500.00000 0 -8773364.006 15637051.706 -18139040.914 10 0 59646 14400.00000 0 -10386861.571 17000284.032 -15925438.571 10 0 59646 15300.00000 0 -11668198.102 18296164.759 -13402400.082 10 0 59646 16200.00000 0 -12610989.033 19460959.399 -10618936.511 10 0 59646 17100.00000 0 -13222225.212 20432961.721 -7629126.296 10 0 59646 18000.00000 0 -13521727.635 21155153.524 -4491063.660 10 0 59646 18900.00000 0 -13541069.277 21577686.472 -1265727.758 10 0 59646 19800.00000 0 -13322010.428 21660080.914 1984205.249 10 0 59646 20700.00000 0 -12914514.487 21373048.444 5195583.554 10 0 59646 21600.00000 0 -12374428.981 20699860.792 8306010.285 10 0 59646 22500.00000 0 -11760930.644 19637206.723 11255058.835 10 0 59646 23400.00000 0 -11133843.290 18195500.357 13985448.742 10 0 59646 24300.00000 0 -10550942.475 16398627.377 16444159.012 10 0 59646 25200.00000 0 -10065361.226 14283139.305 18583457.091 10 0 59646 26100.00000 0 -9723206.652 11896929.189 20361823.582 10 0 59646 27000.00000 0 -9561488.081 9297443.659 21744755.078 10 0 59646 27900.00000 0 -9606444.051 6549505.465 22705430.041 10 0 59646 28800.00000 0 -9872338.525 3722836.812 23225225.328 10 0 59646 29700.00000 0 -10360776.913 889385.885 23294073.967 10 0 59646 30600.00000 0 -11060570.689 -1879433.047 22910657.745 10 0 59646 31500.00000 0 -11948156.371 -4515472.064 22082431.200 10 0 59646 32400.00000 0 -12988551.563 -6956442.047 20825476.731 10 0 59646 33300.00000 0 -14136808.264 -9148258.495 19164193.524 10 0 59646 34200.00000 0 -15339902.899 -11047044.130 17130826.105 10 0 59646 35100.00000 0 -16538984.153 -12620706.072 14764841.215 10 0 59646 36000.00000 0 -17671884.634 -13850022.892 12112164.601 10 0 59646 36900.00000 0 -18675791.070 -14729197.100 9224292.069 10 0 59646 37800.00000 0 -19489960.894 -15265850.979 6157291.660 10 0 59646 38700.00000 0 -20058370.859 -15480466.861 2970716.000 10 0 59646 39600.00000 0 -20332185.846 -15405296.187 -273554.026 10 0 59646 40500.00000 0 -20271943.501 -15082784.085 -3512511.756 10 0 59646 41400.00000 0 -19849361.980 -14563576.600 -6683249.814 10 0 59646 42300.00000 0 -19048694.014 -13904195.270 -9724183.486 10 0 59646 43200.00000 0 -17867569.416 -13164477.834 -12576248.340 10 0 59646 44100.00000 0 -16317289.774 -12404893.588 -15184048.494 10 0 59646 45000.00000 0 -14422562.075 -11683847.160 -17496932.962 10 0 59646 45900.00000 0 -12220681.571 -11055084.766 -19469979.133 10 0 59646 46800.00000 0 -9760197.235 -10565312.555 -21064864.413 10 0 59646 47700.00000 0 -7099114.771 -10252127.536 -22250609.296 10 0 59646 48600.00000 0 -4302711.380 -10142348.309 -23004177.810 10 0 59646 49500.00000 0 -1441052.425 -10250815.920 -23310924.032 10 0 59646 50400.00000 0 1413687.361 -10579715.358 -23164876.312 10 0 59646 51300.00000 0 4189987.583 -11118446.393 -22568853.868 10 0 59646 52200.00000 0 6819716.822 -11844049.433 -21534413.547 10 0 59646 53100.00000 0 9240725.195 -12722168.813 -20081627.607 10 0 59646 54000.00000 0 11399187.923 -13708513.411 -18238696.559 10 0 59646 54900.00000 0 13251603.120 -14750753.544 -16041404.128 10 0 59646 55800.00000 0 14766361.264 -15790774.663 -13532424.488 10 0 59646 56700.00000 0 15924821.671 -16767193.189 -10760494.795 10 0 59646 57600.00000 0 16721851.784 -17618028.560 -7779468.719 10 0 59646 58500.00000 0 17165807.467 -18283418.727 -4647269.299 10 0 59646 59400.00000 0 17277956.081 -18708264.240 -1424761.478 10 0 59646 60300.00000 0 17091367.533 -18844688.893 1825433.540 10 0 59646 61200.00000 0 16649320.903 -18654212.449 5040158.562 10 0 59646 62100.00000 0 16003294.832 -18109543.102 8156951.079 10 0 59646 63000.00000 0 15210627.298 -17195913.296 11115259.923 10 0 59646 63900.00000 0 14331944.415 -15911901.932 13857623.647 10 0 59646 64800.00000 0 13428467.386 -14269707.609 16330787.464 10 0 59646 65700.00000 0 12559311.774 -12294860.725 18486736.904 10 0 59646 66600.00000 0 11778893.237 -10025385.904 20283628.124 10 0 59646 67500.00000 0 11134549.138 -7510449.137 21686597.162 10 0 59646 68400.00000 0 10664476.062 -4808545.500 22668432.893 10 0 59646 69300.00000 0 10396069.770 -1985302.398 23210101.161 10 0 59646 70200.00000 0 10344737.061 889010.958 23301110.539 10 0 59646 71100.00000 0 10513229.139 3742165.105 22939713.102 10 0 59646 72000.00000 0 10891524.209 6502732.285 22132936.694 10 0 59646 72900.00000 0 11457264.084 9102815.033 20896448.219 10 0 59646 73800.00000 0 12176726.421 11480629.082 19254250.525 10 0 59646 74700.00000 0 13006291.837 13582834.072 17238218.542 10 0 59646 75600.00000 0 13894344.422 15366516.165 14887483.245 10 0 59646 76500.00000 0 14783525.931 16800740.876 12247674.889 10 0 59646 77400.00000 0 15613248.970 17867612.178 9370039.768 10 0 59646 78300.00000 0 16322363.426 18562794.505 6310447.219 10 0 59646 79200.00000 0 16851863.706 18895476.581 3128305.868 10 0 59646 80100.00000 0 17147522.415 18887779.356 -114589.852 10 0 59646 81000.00000 0 17162338.967 18573633.666 -3355260.430 10 0 59646 81900.00000 0 16858699.277 17997175.557 -6530765.731 10 0 59646 82800.00000 0 16210154.681 17210727.475 -9579428.945 10 0 59646 83700.00000 0 15202744.312 16272451.022 -12442035.932 10 0 59646 84600.00000 0 13835804.235 15243770.720 -15062986.380 10 0 59646 85500.00000 0 12122228.395 14186677.792 -17391374.110 99